Charleston, SC

1:09 AM EDT on September 30, 2016 (GMT -0400)
Charleston Executive

Weather History for KJZI - November, 2013

Change the Weather History Date:

Monday, November 25, 2013

  Actual Average (KCHS) Record (KCHS)
Temperature  
Mean Temperature 42 °F 56 °F  
Max Temperature 51 °F 67 °F 82 °F (1973)
Min Temperature 33 °F 45 °F 15 °F (1950)
Degree Days  
Heating Degree Days 23 9  
Month to date heating degree days 171  
Since 1 July heating degree days 240  
Cooling Degree Days 0 1  
Month to date cooling degree days 30  
Year to date cooling degree days 2294  
Moisture  
Dew Point 29 °F    
Average Humidity 58    
Maximum Humidity 94    
Minimum Humidity 33    
Precipitation  
Precipitation 0.00 in 0.08 in 1.87 in (1972)
Month to date precipitation 2.02  
Year to date precipitation 47.51  
Sea Level Pressure  
Sea Level Pressure 30.43 in    
Wind  
Wind Speed 12 mph (NNE)    
Max Wind Speed 20 mph    
Max Gust Speed 26 mph    
Visibility 10 miles    
Events      
T = Trace of Precipitation, MM = Missing Value Source: NWS Daily Summary

Daily Weather History Graph

Daily Weather History Graph

Search for Another Location

Airport or City:

Trip Planner

Search our weather history database for the weather conditions in past years. The results will help you decide how hot, cold, wet, or windy it might be!

Date:

Astronomy

Nov. 25, 2013 Rise Set
Actual Time 6:59 AM EST 5:14 PM EST
Civil Twilight 6:32 AM EST 5:41 PM EST
Nautical Twilight 6:02 AM EST 6:11 PM EST
Astronomical Twilight 5:32 AM EST 6:41 PM EST
Moon No Moon Rise 12:28 PM EST (11/25)
Length of Visible Light 11h 08m
Length of Day
10h 15m
Waning Gibbous, 51% of the Moon is Illuminated
Nov 25
Waning Gibbous
Nov 25
Last Quarter
Dec 2
New
Dec 9
First Quarter
Dec 17
Full

Hourly Weather History & Observations

Time (EST) Temp. Windchill Dew Point Humidity Pressure Visibility Wind Dir Wind Speed Gust Speed Precip Events Conditions
12:15 AM 37.4 °F 30.8 °F 15.8 °F 41% 30.51 in 10.0 mi NNE 9.2 mph - 0.00 in   Clear
12:35 AM 35.6 °F 28.0 °F 14.0 °F 41% 30.51 in 10.0 mi NNE 10.4 mph - 0.00 in   Clear
12:55 AM 37.4 °F 29.8 °F 14.0 °F 38% 30.50 in 10.0 mi NNE 11.5 mph - 0.00 in   Clear
1:15 AM 37.4 °F 30.8 °F 14.0 °F 38% 30.50 in 10.0 mi NNE 9.2 mph - 0.00 in   Clear
1:35 AM 37.4 °F 29.3 °F 14.0 °F 38% 30.49 in 10.0 mi NNE 12.7 mph - 0.00 in   Clear
1:55 AM 37.4 °F 29.8 °F 14.0 °F 38% 30.49 in 10.0 mi NNE 11.5 mph - 0.00 in   Clear
2:15 AM 37.4 °F 30.3 °F 10.4 °F 33% 30.49 in 10.0 mi NNE 10.4 mph 16.1 mph 0.00 in   Clear
2:35 AM 37.4 °F 29.8 °F 10.4 °F 33% 30.49 in 10.0 mi North 11.5 mph - 0.00 in   Clear
2:55 AM 35.6 °F 27.5 °F 10.4 °F 35% 30.49 in 10.0 mi North 11.5 mph - 0.00 in   Clear
3:15 AM 35.6 °F 28.0 °F 10.4 °F 35% 30.49 in 10.0 mi NNE 10.4 mph - 0.00 in   Clear
3:35 AM 35.6 °F 27.5 °F 10.4 °F 35% 30.49 in 10.0 mi NNE 11.5 mph - 0.00 in   Clear
3:55 AM 35.6 °F 29.2 °F 12.2 °F 38% 30.49 in 10.0 mi NNE 8.1 mph - 0.00 in   Clear
4:15 AM 35.6 °F 28.0 °F 14.0 °F 41% 30.48 in 10.0 mi North 10.4 mph - 0.00 in   Clear
4:35 AM 33.8 °F 25.8 °F 14.0 °F 44% 30.48 in 10.0 mi North 10.4 mph - 0.00 in   Partly Cloudy
4:55 AM 33.8 °F 25.3 °F 14.0 °F 44% 30.48 in 10.0 mi North 11.5 mph 16.1 mph 0.00 in   Scattered Clouds
5:15 AM 35.6 °F 28.0 °F 14.0 °F 41% 30.49 in 10.0 mi North 10.4 mph - 0.00 in   Scattered Clouds
5:35 AM 35.6 °F 27.5 °F 14.0 °F 41% 30.49 in 10.0 mi North 11.5 mph 16.1 mph 0.00 in   Mostly Cloudy
5:55 AM 35.6 °F 27.1 °F 14.0 °F 41% 30.49 in 10.0 mi North 12.7 mph - 0.00 in   Overcast
6:15 AM 35.6 °F 26.6 °F 14.0 °F 41% 30.49 in 10.0 mi NNE 13.8 mph 21.9 mph 0.00 in   Overcast
6:35 AM 35.6 °F 26.6 °F 14.0 °F 41% 30.50 in 10.0 mi NNE 13.8 mph 19.6 mph 0.00 in   Mostly Cloudy
6:55 AM 35.6 °F 26.6 °F 14.0 °F 41% 30.50 in 10.0 mi NNE 13.8 mph 18.4 mph 0.00 in   Partly Cloudy
7:15 AM 35.6 °F 26.2 °F 14.0 °F 41% 30.51 in 10.0 mi NNE 15.0 mph 19.6 mph 0.00 in   Clear
7:35 AM 35.6 °F 26.6 °F 14.0 °F 41% 30.51 in 10.0 mi NNE 13.8 mph 20.7 mph 0.00 in   Partly Cloudy
7:55 AM 35.6 °F 26.6 °F 12.2 °F 38% 30.51 in 10.0 mi NNE 13.8 mph - 0.00 in   Clear
8:15 AM 37.4 °F 28.9 °F 12.2 °F 36% 30.51 in 10.0 mi NNE 13.8 mph 18.4 mph 0.00 in   Clear
8:35 AM 37.4 °F 29.8 °F 14.0 °F 38% 30.51 in 10.0 mi NNE 11.5 mph 19.6 mph 0.00 in   Clear
8:55 AM 39.2 °F 30.8 °F 17.6 °F 42% 30.51 in 10.0 mi NNE 15.0 mph 19.6 mph 0.00 in   Clear
9:15 AM 41.0 °F 33.1 °F 19.4 °F 42% 30.50 in 10.0 mi NNE 15.0 mph 21.9 mph 0.00 in   Clear
9:35 AM 42.8 °F 34.8 °F 21.2 °F 42% 30.50 in 10.0 mi NNE 17.3 mph 21.9 mph 0.00 in   Clear
9:55 AM 44.6 °F 37.2 °F 23.0 °F 43% 30.50 in 10.0 mi NNE 17.3 mph 25.3 mph 0.00 in   Clear
10:15 AM 44.6 °F 37.2 °F 26.6 °F 49% 30.50 in 10.0 mi NE 17.3 mph 21.9 mph 0.00 in   Clear
10:35 AM 46.4 °F 40.4 °F 26.6 °F 46% 30.50 in 10.0 mi NE 13.8 mph 24.2 mph 0.00 in   Clear
10:55 AM 46.4 °F 39.5 °F 26.6 °F 46% 30.49 in 10.0 mi NE 17.3 mph 23.0 mph 0.00 in   Clear
11:15 AM 48.2 °F - 30.2 °F 50% 30.49 in 10.0 mi NE 13.8 mph 21.9 mph 0.00 in   Clear
11:35 AM 48.2 °F - 30.2 °F 50% 30.48 in 10.0 mi ENE 18.4 mph 24.2 mph 0.00 in   Clear
11:55 AM 48.2 °F - 32.0 °F 54% 30.47 in 10.0 mi ENE 18.4 mph 26.5 mph 0.00 in   Clear
12:15 PM 48.2 °F - 32.0 °F 54% 30.45 in 10.0 mi NE 17.3 mph 25.3 mph 0.00 in   Clear
12:35 PM 48.2 °F - 32.0 °F 54% 30.44 in 10.0 mi NE 19.6 mph 24.2 mph 0.00 in   Clear
12:55 PM 48.2 °F - 32.0 °F 54% 30.44 in 10.0 mi NE 18.4 mph - 0.00 in   Clear
1:15 PM 50.0 °F - 33.8 °F 54% 30.43 in 10.0 mi ENE 18.4 mph 23.0 mph 0.00 in   Clear
1:35 PM 48.2 °F - 33.8 °F 58% 30.43 in 10.0 mi ENE 17.3 mph - 0.00 in   Clear
1:55 PM 48.2 °F - 33.8 °F 58% 30.42 in 10.0 mi ENE 18.4 mph 24.2 mph 0.00 in   Scattered Clouds
2:15 PM 48.2 °F - 33.8 °F 58% 30.42 in 10.0 mi ENE 12.7 mph - 0.00 in   Overcast
2:35 PM 48.2 °F - 33.8 °F 58% 30.41 in 10.0 mi NE 13.8 mph 24.2 mph 0.00 in   Overcast
2:55 PM 46.4 °F 39.2 °F 35.6 °F 66% 30.40 in 10.0 mi NE 18.4 mph 21.9 mph 0.00 in   Overcast
3:15 PM 48.2 °F - 35.6 °F 62% 30.40 in 10.0 mi NE 18.4 mph - 0.00 in   Overcast
3:35 PM 48.2 °F - 35.6 °F 62% 30.39 in 10.0 mi NE 16.1 mph 20.7 mph 0.00 in   Overcast
3:55 PM 48.2 °F - 37.4 °F 66% 30.39 in 10.0 mi NE 16.1 mph 24.2 mph 0.00 in   Overcast
4:15 PM 48.2 °F - 37.4 °F 66% 30.38 in 10.0 mi NE 15.0 mph - 0.00 in   Overcast
4:35 PM 48.2 °F - 39.2 °F 71% 30.38 in 10.0 mi NE 11.5 mph 19.6 mph 0.00 in   Overcast
4:55 PM 48.2 °F - 39.2 °F 71% 30.37 in 10.0 mi NNE 10.4 mph - 0.00 in   Overcast
5:15 PM 48.2 °F - 39.2 °F 71% 30.36 in 10.0 mi NE 15.0 mph 18.4 mph 0.00 in   Overcast
5:35 PM 48.2 °F - 41.0 °F 76% 30.36 in 10.0 mi NNE 10.4 mph - 0.00 in   Overcast
5:55 PM 48.2 °F - 41.0 °F 76% 30.37 in 10.0 mi NNE 11.5 mph - 0.00 in   Overcast
6:15 PM 48.2 °F - 41.0 °F 76% 30.37 in 10.0 mi NNE 11.5 mph 16.1 mph 0.00 in   Overcast
6:35 PM 48.2 °F - 42.8 °F 82% 30.37 in 10.0 mi NNE 12.7 mph - 0.00 in   Overcast
6:55 PM 48.2 °F - 42.8 °F 82% 30.38 in 10.0 mi NNE 12.7 mph - 0.00 in   Overcast
7:15 PM 48.2 °F - 42.8 °F 82% 30.36 in 10.0 mi NNE 13.8 mph 18.4 mph 0.00 in   Overcast
7:35 PM 48.2 °F - 42.8 °F 82% 30.36 in 10.0 mi NNE 12.7 mph - 0.00 in   Overcast
7:55 PM 48.2 °F - 42.8 °F 82% 30.34 in 10.0 mi NNE 13.8 mph 19.6 mph 0.00 in   Mostly Cloudy
8:15 PM 48.2 °F - 42.8 °F 82% 30.34 in 10.0 mi NNE 11.5 mph 18.4 mph 0.00 in   Clear
8:35 PM 48.2 °F - 44.6 °F 87% 30.33 in 10.0 mi NNE 11.5 mph - 0.00 in   Partly Cloudy
8:55 PM 48.2 °F - 44.6 °F 87% 30.33 in 10.0 mi NNE 11.5 mph - 0.00 in   Partly Cloudy
9:15 PM 48.2 °F - 44.6 °F 87% 30.31 in 10.0 mi NNE 11.5 mph 17.3 mph 0.00 in   Partly Cloudy
9:35 PM 48.2 °F - 44.6 °F 87% 30.31 in 10.0 mi NNE 10.4 mph - 0.00 in   Mostly Cloudy
9:55 PM 50.0 °F - 46.4 °F 87% 30.31 in 10.0 mi North 8.1 mph - 0.00 in   Overcast
10:15 PM 50.0 °F - 46.4 °F 87% 30.30 in 10.0 mi NNE 8.1 mph - 0.00 in   Overcast
10:35 PM 51.8 °F - 48.2 °F 88% 30.29 in 10.0 mi NE 6.9 mph - 0.00 in   Overcast
10:55 PM 51.8 °F - 48.2 °F 88% 30.28 in 5.0 mi ENE 13.8 mph - 0.00 in   Overcast
11:15 PM 51.8 °F - 48.2 °F 88% 30.27 in 9.0 mi NE 13.8 mph - 0.00 in   Partly Cloudy
11:35 PM 51.8 °F - 50.0 °F 94% 30.27 in 8.0 mi NE 10.4 mph - 0.00 in   Scattered Clouds
11:55 PM 51.8 °F - 50.0 °F 94% 30.25 in 10.0 mi NE 10.4 mph - 0.00 in   Scattered Clouds